Weather History for Whiteman AFB, MO

Change the Weather History Date:

Monday, November 5, 2012

  Actual Average Record
Temperature  
Mean Temperature 44 °F -  
Max Temperature 45 °F 55 °F 78 °F (1999)
Min Temperature 42 °F 39 °F 29 °F (2010)
Degree Days  
Heating Degree Days 22    
Moisture  
Dew Point 43 °F    
Average Humidity 98    
Maximum Humidity 100    
Minimum Humidity 81    
Precipitation  
Precipitation 0.15 in - - ()
Sea Level Pressure  
Sea Level Pressure 30.04 in    
Wind  
Wind Speed 9 mph (North)    
Max Wind Speed 15 mph    
Max Gust Speed -    
Visibility 5 miles    
Events Rain    
Averages and records for this station are not official NWS values.
T = Trace of Precipitation, MM = Missing Value Source: NWS Daily Summary

Daily Weather History Graph

Daily Weather History Graph

Search for Another Location

Airport:

Trip Planner

Search our weather history database for the weather conditions in past years. The results will help you decide how hot, cold, wet, or windy it might be!

Date:

Astronomy

Nov. 05, 2012 Rise Set
Actual Time 6:46 AM CST 5:09 PM CST
Civil Twilight 6:18 AM CST 5:36 PM CST
Nautical Twilight 5:46 AM CST 6:08 PM CST
Astronomical Twilight 5:15 AM CST 6:39 PM CST
Moon 10:47 PM CST (11/5) 12:05 PM CST (11/5)
Length of Visible Light 11h 18m
Length of Day
10h 23m
Waning Gibbous, 62% of the Moon is Illuminated
Nov 5
Waning Gibbous
Nov 6
Last Quarter
Nov 13
New
Nov 20
First Quarter
Nov 28
Full

Hourly Weather History & Observations

Time (CST) Temp. Windchill Dew Point Humidity Pressure Visibility Wind Dir Wind Speed Gust Speed Precip Events Conditions
12:30 AM 44.6 °F 38.8 °F 39.2 °F 81% 30.05 in 10.0 mi SE 11.5 mph - N/A   Mostly Cloudy
12:55 AM 45.1 °F 40.3 °F 40.1 °F 82% 30.05 in 9.0 mi SE 9.2 mph - 0.01 in Rain Light Rain
1:55 AM 44.4 °F 39.5 °F 41.5 °F 90% 30.04 in 8.0 mi SSE 9.2 mph - 0.02 in Rain Light Rain
2:55 AM 44.6 °F 40.7 °F 41.9 °F 90% 30.01 in 8.0 mi SSE 6.9 mph - 0.02 in Rain Light Rain
3:55 AM 44.2 °F 38.8 °F 43.2 °F 96% 29.98 in 9.0 mi SSE 10.4 mph - 0.03 in Rain Light Rain
4:55 AM 45.0 °F 41.8 °F 43.9 °F 96% 29.97 in 10.0 mi South 5.8 mph - 0.01 in   Overcast
5:12 AM 44.6 °F 43.1 °F 44.6 °F 100% 29.97 in 6.0 mi ESE 3.5 mph - N/A Rain Light Rain
5:55 AM 44.8 °F 41.6 °F 44.6 °F 99% 29.96 in 10.0 mi SSE 5.8 mph - 0.01 in Rain Light Rain
6:08 AM 44.6 °F 43.1 °F 44.6 °F 100% 29.96 in 10.0 mi SSE 3.5 mph - N/A   Overcast
6:55 AM 44.2 °F 41.0 °F 44.2 °F 100% 29.97 in 10.0 mi North 5.8 mph - 0.01 in   Overcast
7:31 AM 44.6 °F 40.7 °F 44.6 °F 100% 29.98 in 6.0 mi NNE 6.9 mph - N/A Rain Light Rain
7:55 AM 44.1 °F 40.8 °F 44.1 °F 100% 29.98 in 6.0 mi NNE 5.8 mph - 0.00 in Rain Light Rain
8:31 AM 44.6 °F 43.1 °F 44.6 °F 100% 29.99 in 4.0 mi NNE 3.5 mph - N/A Rain Light Rain
8:48 AM 44.6 °F 41.4 °F 44.6 °F 100% 29.99 in 7.0 mi North 5.8 mph - N/A   Overcast
8:55 AM 44.4 °F 41.2 °F 44.4 °F 100% 29.99 in 7.0 mi North 5.8 mph - 0.01 in   Overcast
9:55 AM 45.1 °F 41.4 °F 45.1 °F 100% 30.00 in 5.0 mi North 6.9 mph - 0.01 in   Overcast
10:37 AM 44.6 °F 38.4 °F 44.6 °F 100% 30.01 in 5.0 mi NNW 12.7 mph - N/A   Overcast
10:55 AM 45.3 °F 40.6 °F 45.3 °F 100% 30.01 in 9.0 mi NNW 9.2 mph - N/A   Overcast
11:49 AM 44.6 °F 39.2 °F 44.6 °F 100% 30.01 in 3.0 mi North 10.4 mph - N/A   Light Drizzle
11:55 AM 44.8 °F 39.4 °F 44.8 °F 100% 30.01 in 3.0 mi North 10.4 mph - 0.00 in   Light Drizzle
12:55 PM 44.1 °F 38.6 °F 44.1 °F 100% 30.01 in 3.0 mi North 10.4 mph - 0.00 in   Light Drizzle
1:55 PM 44.2 °F 38.4 °F 44.2 °F 100% 30.02 in 1.2 mi North 11.5 mph - 0.00 in   Drizzle
2:23 PM 44.6 °F 39.2 °F 44.6 °F 100% 30.02 in 1.5 mi North 10.4 mph - N/A   Light Drizzle
2:45 PM 42.8 °F 37.0 °F 42.8 °F 100% 30.03 in 1.5 mi North 10.4 mph - N/A   Light Drizzle
2:55 PM 43.5 °F 37.1 °F 43.5 °F 100% 30.03 in 1.5 mi North 12.7 mph - 0.01 in   Light Drizzle
3:19 PM 42.8 °F 35.4 °F 42.8 °F 100% 30.03 in 1.5 mi North 15.0 mph - N/A   Light Drizzle
3:55 PM 43.2 °F 37.0 °F 43.2 °F 100% 30.04 in 5.0 mi North 11.5 mph - 0.01 in Rain Light Rain
4:55 PM 42.6 °F 35.9 °F 42.6 °F 100% 30.06 in 4.0 mi North 12.7 mph - 0.00 in   Light Drizzle
5:55 PM 42.4 °F 36.5 °F 42.4 °F 100% 30.08 in 4.0 mi North 10.4 mph - 0.00 in   Overcast
6:02 PM 42.8 °F 37.0 °F 42.8 °F 100% 30.09 in 4.0 mi North 10.4 mph - N/A   Overcast
6:18 PM 42.8 °F 37.0 °F 42.8 °F 100% 30.10 in 5.0 mi North 10.4 mph - N/A   Overcast
6:34 PM 42.8 °F 37.0 °F 42.8 °F 100% 30.10 in 3.0 mi North 10.4 mph - N/A   Light Drizzle
6:55 PM 42.3 °F 36.3 °F 42.3 °F 100% 30.10 in 3.0 mi North 10.4 mph - 0.00 in   Overcast
7:55 PM 42.1 °F 36.6 °F 42.1 °F 100% 30.10 in 3.0 mi North 9.2 mph - N/A   Overcast
8:55 PM 42.1 °F 37.1 °F 42.1 °F 100% 30.11 in 4.0 mi North 8.1 mph - 0.00 in   Overcast
9:55 PM 42.1 °F 37.1 °F 42.1 °F 100% 30.10 in 4.0 mi NNE 8.1 mph - N/A   Overcast
10:55 PM 42.1 °F 39.2 °F 42.1 °F 100% 30.10 in 6.0 mi NNE 4.6 mph - N/A   Overcast
11:04 PM 42.8 °F 39.3 °F 42.8 °F 100% 30.10 in 4.0 mi North 5.8 mph - N/A   Overcast
11:05 PM 42.8 °F 39.3 °F 42.8 °F 100% 30.10 in 4.0 mi North 5.8 mph - N/A   Overcast
11:30 PM 42.8 °F 40.1 °F 42.8 °F 100% 30.10 in 6.0 mi North 4.6 mph - N/A   Overcast
11:37 PM 42.8 °F 39.3 °F 42.8 °F 100% 30.10 in 6.0 mi North 5.8 mph - N/A   Light Drizzle
11:55 PM 42.1 °F 39.2 °F 42.1 °F 100% 30.09 in 5.0 mi North 4.6 mph - 0.00 in   Light Drizzle